Volver al catálogo

STARLINK-37798

ActivoComunicacionesSSO
NORAD 69497·PAYLOAD·🇺🇸 United States

Lanzado Jun 11, 2026 desde Vandenberg Space Force Base

Loading…

Próximos Pases (próximas 24 horas)

TLE

ActualizadoSource: CelesTrak SupGP

Época: Sep 14, 2026, 23:27 UTC

1 69497C 26131V   26257.97756944  .00047996  00000+0  14900-2 0  2578
2 69497  97.2836 278.9728 0001284  93.4055 297.9130 15.33413897    12

Sigue STARLINK-37798 en tiempo real con AllMySat

Download on the App Store